Regional Weather Roundup
Issued by NWS

Home | Current Version | Previous Version | Graphics & Text | Print | Product List | Glossary On
Versions: 1 2 3 4 5 6 7 8 9 10 11 12 13 14 15 16 17 18 19 20 21 22 23 24 25 26 27 28 29 30 31 32 33 34 35 36 37 38 39 40 41 42 43 44 45 46 47 48 49 50
000
ASUS43 KLSX 141757
RWRMO

WEATHER SUMMARY FOR MISSOURI
NATIONAL WEATHER SERVICE SPRINGFIELD MO
1200 PM CST SUN FEB 14 2016

NOTE: "FAIR" INDICATES FEW OR NO CLOUDS BELOW 12,000 FEET WITH NO
       SIGNIFICANT WEATHER AND/OR OBSTRUCTIONS TO VISIBILITY.
       CURRENT SKY AND/OR WEATHER CONDITIONS ARE NOT AVAILABLE FOR
       CHILLICOTHE AND FARMINGTON.

MOZ001>031-035>038-043-044-053-054-141900-
...NORTHERN AND WESTERN MISSOURI...

CITY           SKY/WX    TMP DP  RH WIND       PRES   REMARKS
KANSAS CTY INT MOSUNNY   40  21  46 SW14      29.91F
6HR MIN TEMP:  21; 6HR MAX TEMP:  41;

ST JOSEPH      CLOUDY    39  19  44 SW12      29.91F
6HR MIN TEMP:  23; 6HR MAX TEMP:  39;

CHILLICOTHE      N/A     32  23  69 S10       29.94F WCI  24
6HR MIN TEMP:  23; 6HR MAX TEMP:  32;


$$
MOZ066>068-077>081-088>096-101>105-141900-
...SOUTHWEST MISSOURI...

CITY           SKY/WX    TMP DP  RH WIND       PRES   REMARKS
SPRINGFIELD    CLOUDY    30  23  75 S14       29.97F WCI  19
6HR MIN TEMP:  25; 6HR MAX TEMP:  30; 6HR PCP: TRACE;

JOPLIN         SUNNY     45  35  68 S8        29.96F
6HR MIN TEMP:  30; 6HR MAX TEMP:  46; 6HR PCP: TRACE;


$$
MOZ032>034-039>042-045>050-055>058-069>072-141900-
...CENTRAL MISSOURI...

CITY           SKY/WX    TMP DP  RH WIND       PRES   REMARKS
COLUMBIA       NOT AVBL
JEFFERSON CITY CLOUDY    28  23  81 S12       30.01F WCI  18
6HR MIN TEMP:  22; 6HR MAX TEMP:  28; 6HR PCP: TRACE;

ROLLA          CLOUDY    27  23  86 S15       29.98F WCI  15
SEDALIA        CLOUDY    32  27  81 S15       29.97F WCI  22
6HR MIN TEMP:  23; 6HR MAX TEMP:  32; 6HR PCP: TRACE;


$$
MOZ051-052-059>065-141900-
...EAST CENTRAL MISSOURI...

CITY           SKY/WX    TMP DP  RH WIND       PRES   REMARKS
ST LOUIS INTL  LGT SNOW  24  18  77 SE13G22   30.09F WCI  12
6HR MIN TEMP:  22; 6HR MAX TEMP:  24; 6HR PCP:  0.15;

ST CHARLES     LGT SNOW  23  19  86 SE12      30.10F FOG     WCI  12

$$
MOZ072>076-082>087-097>100-106>115-141900-
...SOUTH CENTRAL AND SOUTHEAST MISSOURI...

CITY           SKY/WX    TMP DP  RH WIND       PRES   REMARKS
CAPE GIRARDEAU FRZ RAIN  27  24  89 SE14      30.13F FOG     WCI  16
6HR MIN TEMP:  22; 6HR MAX TEMP:  27; 6HR PCP:  0.37;

POPLAR BLUFF   FRZ RAIN  27  24  89 E8        30.11F FOG     WCI  19
6HR MIN TEMP:  25; 6HR MAX TEMP:  28; 6HR PCP:  0.17;

WEST PLAINS    CLOUDY    26  22  84 SE9       30.03F FOG     WCI  17
6HR MIN TEMP:  24; 6HR MAX TEMP:  26; 6HR PCP:  0.06;


$$


USA.gov is the U.S. government's official web portal to all federal, state and local government web resources and services.